[[{"header":{"parameterUnit":"m.s-1","parameterCategory":1,"la1":30.2991,"la2":30.254,"lo1":-89.0895,"lo2":-89.0444,"dy":0.0017,"dx":0.0017,"nx":28,"ny":28,"refTime":"2024-07-07T09:00:00:Z","depth":0,"parameterNumber":2,"parameterNumberName":"U-component_of_WINDS"},"data":[0,0,0,0,0,0,0,0,0,0,0,0,0,0,0,0,0,0,0,0,0,0,0,0,0,0,0,0,0,0,0,0,0,0,0,0,0,0,0,0,0,0,0,0,0,0,0,0,0,0,0,0,0,0,0,0,0,0,0.1746,0.1746,0,0.1797,0.1798,0.1799,0.1804,0.1804,0.1803,0.1803,0.1855,0.1857,0.1859,0,0,0,0,0,0,0,0,0,0,0,0,0,0.1652,0.1653,0.1746,0.1746,0.1747,0.1797,0.1798,0.1799,0.1804,0.1804,0.1803,0.1802,0.1854,0.1857,0.1859,0,0,0,0,0,0,0,0,0,0,0,0,0,0.1697,0.1654,0.1746,0.1756,0.1757,0.1797,0.1798,0.1799,0.1804,0.1804,0.1803,0.1802,0.1854,0.1856,0.1859,0.1892,0,0,0.1868,0.1869,0,0,0,0,0,0,0,0,0.1694,0.17,0.1754,0.1755,0.1757,0.1794,0.1784,0.183,0.1805,0.1786,0.1803,0.1802,0.1835,0.184,0.1851,0.1895,0.1897,0.1868,0.187,0.1871,0.1872,0,0,0,0,0,0,0,0.1691,0.1698,0.1766,0.1754,0.1756,0.1758,0.1763,0.1793,0.1815,0.1788,0.1789,0.1795,0.1836,0.1848,0.1852,0.1898,0.1868,0.1871,0.1872,0.1873,0.1972,0.1973,0,0,0,0,0,0,0.1686,0.1695,0.1764,0.1768,0.1723,0.176,0.1766,0.1783,0.1814,0.1818,0.1795,0.1795,0.1844,0.1849,0.1854,0.1895,0.1871,0.1874,0.1875,0.1971,0.1973,0.1974,0,0,0,0,0,0,0.1684,0.1692,0.1762,0.1732,0.1741,0.1763,0.1781,0.1784,0.1796,0.182,0.1824,0.1804,0.1843,0.185,0.1883,0.1897,0.1875,0.1878,0.197,0.1972,0.1973,0.1978,0,0,0,0,0,0,0.1681,0.1691,0.1704,0.1732,0.1742,0.179,0.1782,0.1786,0.1801,0.1801,0.1829,0.1833,0.1843,0.1879,0.1886,0.1901,0.188,0.1969,0.1971,0.1973,0.1977,0.1979,0.1982,0,0,0,0,0,0.1678,0.1703,0.1705,0.1713,0.1759,0.1791,0.1797,0.1809,0.1802,0.1815,0.1831,0.1832,0.1895,0.1882,0.189,0.1906,0.1968,0.197,0.1973,0.1975,0.1979,0.1982,0,0,0,0,0,0,0.1676,0.1707,0.1709,0.1744,0.1765,0.1792,0.1809,0.1812,0.1835,0.1834,0.1848,0.1854,0.1886,0.19,0.1885,0.194,0.1931,0.1935,0.193,0.1934,0.1936,0.1932,0.1882,0,0,0,0,0,0.168,0.1704,0.1729,0.1758,0.1768,0.1787,0.1801,0.1809,0.1831,0.184,0.1857,0.1879,0.1903,0.1919,0.1943,0.1979,0.1985,0.1994,0.1996,0.1998,0.2001,0.2021,0.2026,0.1981,0.198,0.198,0,0,0.1687,0.1707,0.1722,0.1758,0.1775,0.1799,0.1794,0.182,0.1838,0.1844,0.1876,0.189,0.1915,0.1949,0.1965,0.1961,0.2015,0.2001,0.2002,0.2004,0.2024,0.2028,0.2032,0.1982,0.1982,0.1981,0,0,0.1714,0.1732,0.1757,0.1775,0.1801,0.1813,0.182,0.1846,0.1856,0.1889,0.1893,0.1915,0.1957,0.1975,0.199,0.2024,0.2026,0.2031,0.2044,0.2064,0.2068,0.2071,0.2083,0.2088,0.2034,0.2034,0.2034,0,0.172,0.1757,0.177,0.1796,0.1812,0.1819,0.1845,0.1861,0.1894,0.1905,0.19,0.1953,0.197,0.2009,0.2018,0.2029,0.2037,0.2028,0.2066,0.207,0.2073,0.2085,0.2089,0.2035,0.2035,0.2035,0.2035,0,0.1764,0.179,0.1807,0.1839,0.1857,0.1883,0.19,0.1917,0.1923,0.1936,0.1969,0.199,0.2019,0.2029,0.2035,0.2069,0.2066,0.2063,0.2054,0.2077,0.2089,0.2094,0.2036,0.2035,0.2035,0.2035,0,0,0.179,0.1829,0.1836,0.185,0.188,0.19,0.1927,0.1955,0.1969,0.1992,0.2015,0.2051,0.2049,0.2065,0.2074,0.2091,0.2117,0.2086,0.2087,0.2092,0.2157,0.2158,0.2163,0.2119,0.212,0.2121,0.2155,0,0.182,0.1868,0.188,0.1921,0.1945,0.1952,0.1975,0.1996,0.2009,0.2032,0.2046,0.2071,0.2067,0.2077,0.2095,0.211,0.213,0.2108,0.214,0.2141,0.2134,0.2169,0.2171,0.2202,0.2159,0.216,0.2161,0,0.1861,0.1885,0.1928,0.1956,0.1966,0.1987,0.2014,0.2036,0.206,0.2068,0.2087,0.2094,0.2122,0.2112,0.2151,0.2135,0.215,0.2159,0.2161,0.2164,0.2152,0.2174,0.2212,0.2217,0.2168,0.2167,0.2167,0,0.1876,0.1919,0.1951,0.1963,0.1996,0.201,0.2025,0.2048,0.2064,0.2088,0.2099,0.2126,0.2141,0.2161,0.2175,0.2166,0.2214,0.2204,0.2222,0.2221,0.2231,0.223,0.2272,0.224,0.224,0.224,0.224,0,0.1909,0.1935,0.1958,0.1977,0.2007,0.2022,0.205,0.2065,0.2086,0.2108,0.2116,0.2137,0.2154,0.2177,0.2188,0.2219,0.2226,0.2234,0.2236,0.2233,0.2232,0.2242,0.224,0.2241,0.2241,0.2241,0.224,0,0.193,0.1947,0.1982,0.201,0.2018,0.2039,0.2063,0.2082,0.2096,0.2124,0.2131,0.2153,0.2181,0.2197,0.2232,0.2239,0.2274,0.2276,0.2266,0.2267,0.2283,0.2282,0.2333,0.2341,0.2304,0.2304,0.2304,0,0.195,0.197,0.2001,0.2017,0.2031,0.2056,0.2073,0.2089,0.2106,0.2135,0.2151,0.218,0.2203,0.2248,0.2266,0.2293,0.2296,0.2312,0.23,0.2296,0.2296,0.2295,0.2297,0.2314,0.2314,0.2314,0.2315,0,0.1982,0.199,0.2014,0.2042,0.2062,0.2084,0.2107,0.2119,0.2138,0.2157,0.2186,0.2204,0.2241,0.2269,0.2298,0.2313,0.2317,0.2319,0.2324,0.2321,0.2314,0.2318,0.2272,0.2317,0.2317,0.2317,0.2317,0.2316,0.2004,0.2022,0.2047,0.2074,0.2093,0.2114,0.2133,0.215,0.2174,0.2205,0.2212,0.2243,0.2267,0.2306,0.2322,0.2346,0.2343,0.2351,0.2353,0.2355,0.2355,0.2311,0.2351,0.2351,0.2351,0.2351,0.2351,0,0.2037,0.2053,0.2078,0.211,0.2131,0.2134,0.2159,0.2176,0.2203,0.2225,0.2249,0.2282,0.231,0.2331,0.236,0.2375,0.2378,0.2382,0.2381,0.2384,0.2356,0.2348,0.2379,0.2379,0.2379,0.2379,0.2379,0.2379,0.2057,0.2089,0.2099,0.2141,0.2157,0.2187,0.2201,0.2221,0.2239,0.2276,0.2299,0.2313,0.2335,0.2365,0.2391,0.2396,0.2406,0.241,0.2416,0.2389,0.2386,0.2383,0.2376,0.2412,0.2413,0.2443,0.2443,0.2443]},{"header":{"parameterUnit":"m.s-1","parameterCategory":1,"la1":30.2991,"la2":30.254,"lo1":-89.0895,"lo2":-89.0444,"dy":0.0017,"dx":0.0017,"nx":28,"ny":28,"refTime":"2024-07-07T09:00:00:Z","depth":0,"parameterNumber":3,"parameterNumberName":"V-component_of_WINDS"},"data":[0,0,0,0,0,0,0,0,0,0,0,0,0,0,0,0,0,0,0,0,0,0,0,0,0,0,0,0,0,0,0,0,0,0,0,0,0,0,0,0,0,0,0,0,0,0,0,0,0,0,0,0,0,0,0,0,0,0,1.4056,1.4057,0,1.4159,1.416,1.4161,1.4114,1.4111,1.4108,1.4106,1.4212,1.4217,1.4222,0,0,0,0,0,0,0,0,0,0,0,0,0,1.3816,1.3821,1.4056,1.4057,1.4058,1.4159,1.416,1.4162,1.4114,1.4111,1.4108,1.4105,1.421,1.4216,1.4223,0,0,0,0,0,0,0,0,0,0,0,0,0,1.392,1.3822,1.4055,1.4047,1.4047,1.4159,1.416,1.4162,1.4115,1.4111,1.4107,1.4103,1.4208,1.4216,1.4224,1.435,0,0,1.4248,1.4251,0,0,0,0,0,0,0,0,1.3914,1.3929,1.4047,1.4047,1.4048,1.4119,1.4115,1.4225,1.4116,1.4089,1.4106,1.4101,1.4184,1.4194,1.4222,1.4355,1.436,1.4248,1.4253,1.4256,1.4259,0,0,0,0,0,0,0,1.3907,1.3924,1.4097,1.4048,1.4049,1.4037,1.4048,1.4135,1.4157,1.4091,1.4088,1.4101,1.4184,1.4214,1.4224,1.4361,1.4248,1.4255,1.426,1.4263,1.4603,1.4607,0,0,0,0,0,0,1.39,1.3918,1.4093,1.41,1.397,1.4045,1.4056,1.41,1.4156,1.4161,1.4104,1.4098,1.4203,1.4215,1.4228,1.438,1.4256,1.4264,1.4268,1.4598,1.4603,1.4608,0,0,0,0,0,0,1.3895,1.3916,1.4089,1.4008,1.4029,1.4053,1.4103,1.4105,1.4135,1.4166,1.417,1.4131,1.42,1.4217,1.432,1.4383,1.4267,1.4274,1.4593,1.46,1.4606,1.4684,0,0,0,0,0,0,1.3888,1.3914,1.3963,1.401,1.4034,1.418,1.4107,1.4109,1.4149,1.4142,1.4192,1.4197,1.4199,1.4308,1.4328,1.4391,1.4281,1.4588,1.4596,1.4604,1.4676,1.4693,1.4707,0,0,0,0,0,1.388,1.3981,1.3966,1.3987,1.4095,1.4184,1.4198,1.4198,1.4154,1.4203,1.4222,1.4195,1.4372,1.4319,1.4341,1.4408,1.4584,1.4594,1.4603,1.467,1.469,1.4706,0,0,0,0,0,0,1.3942,1.3987,1.3971,1.409,1.4134,1.4176,1.4238,1.4219,1.4275,1.4267,1.4264,1.4275,1.4383,1.4405,1.4346,1.4532,1.4471,1.4486,1.4514,1.4534,1.4549,1.4542,1.4287,0,0,0,0,0,1.397,1.4038,1.4074,1.4176,1.4198,1.4215,1.4253,1.4249,1.4294,1.4312,1.4339,1.4384,1.4449,1.4492,1.4554,1.4678,1.4689,1.4735,1.475,1.4762,1.4775,1.4843,1.4864,1.464,1.464,1.464,0,0,1.4028,1.4061,1.4105,1.4189,1.4222,1.4293,1.423,1.4308,1.4361,1.4324,1.4423,1.4444,1.4494,1.4608,1.466,1.463,1.4839,1.4775,1.4784,1.4791,1.4855,1.4876,1.4895,1.4646,1.4645,1.4644,0,0,1.417,1.4202,1.429,1.4324,1.4375,1.4385,1.4406,1.4451,1.4463,1.4563,1.4537,1.4598,1.4711,1.4747,1.478,1.4934,1.4912,1.4954,1.5035,1.51,1.5118,1.5134,1.5189,1.5209,1.4967,1.4967,1.4967,0,1.4236,1.4342,1.4338,1.4418,1.4456,1.4425,1.4514,1.4547,1.4616,1.4643,1.4608,1.4748,1.4779,1.4902,1.4939,1.4967,1.4991,1.495,1.5116,1.5131,1.5146,1.5199,1.522,1.4972,1.4971,1.4971,1.497,0,1.4421,1.4494,1.456,1.4626,1.4671,1.4756,1.4764,1.481,1.4801,1.4814,1.4916,1.4951,1.502,1.5048,1.504,1.5169,1.5149,1.5115,1.5054,1.5172,1.5222,1.5242,1.4979,1.4977,1.4976,1.4975,0,0,1.4608,1.4669,1.4694,1.4723,1.4776,1.4833,1.4915,1.4982,1.5021,1.5068,1.5138,1.5233,1.5201,1.5239,1.5235,1.5292,1.5412,1.5251,1.5252,1.5281,1.5557,1.5584,1.5607,1.5397,1.54,1.5403,1.5553,0,1.4754,1.4899,1.4897,1.5031,1.5099,1.5069,1.514,1.518,1.5194,1.5254,1.5268,1.5337,1.5289,1.5312,1.5367,1.5386,1.5468,1.5375,1.5462,1.5465,1.5452,1.5633,1.5662,1.5802,1.5573,1.5576,1.5578,0,1.4946,1.4999,1.514,1.5182,1.521,1.5275,1.5335,1.5392,1.5436,1.5442,1.5483,1.547,1.5553,1.5487,1.5602,1.5539,1.5573,1.5588,1.5593,1.5603,1.553,1.5649,1.5846,1.5868,1.5609,1.5606,1.5604,0,1.5069,1.5176,1.5274,1.53,1.5351,1.5397,1.542,1.546,1.55,1.5553,1.5579,1.564,1.5674,1.5722,1.5725,1.5677,1.5841,1.5775,1.5848,1.5849,1.5886,1.5884,1.6093,1.5906,1.5905,1.5905,1.5905,0,1.5234,1.5322,1.533,1.5391,1.5487,1.5483,1.5579,1.5598,1.5634,1.5697,1.5674,1.5734,1.5734,1.5795,1.5798,1.5892,1.5907,1.5915,1.5915,1.5918,1.5917,1.5942,1.5933,1.5911,1.5909,1.5908,1.5907,0,1.5389,1.5398,1.5503,1.5542,1.5554,1.5624,1.5657,1.5715,1.5725,1.5806,1.5824,1.5842,1.5912,1.5919,1.6001,1.6003,1.6118,1.6106,1.6103,1.6102,1.6175,1.6169,1.6409,1.6441,1.6231,1.6233,1.6235,0,1.5495,1.5562,1.5608,1.5648,1.5674,1.574,1.5781,1.5778,1.5821,1.5876,1.5927,1.5994,1.6049,1.6163,1.6183,1.6245,1.6236,1.6316,1.6245,1.6246,1.6239,1.6236,1.6242,1.633,1.6332,1.6334,1.6336,0,1.5682,1.5683,1.5742,1.5803,1.5852,1.5899,1.5944,1.5978,1.5981,1.6031,1.6102,1.6145,1.6227,1.6296,1.6356,1.638,1.6359,1.6357,1.6378,1.6383,1.6379,1.6383,1.6142,1.6353,1.6351,1.635,1.6349,1.6348,1.5817,1.5875,1.5916,1.5982,1.6015,1.6057,1.6113,1.613,1.619,1.6258,1.6252,1.6331,1.6372,1.6452,1.648,1.6542,1.6515,1.6544,1.6552,1.656,1.6568,1.6367,1.6552,1.6552,1.6552,1.6551,1.6551,0,1.6004,1.6029,1.609,1.6153,1.6205,1.6179,1.6226,1.6272,1.6342,1.6382,1.6435,1.6517,1.6583,1.6607,1.6671,1.6715,1.6707,1.6732,1.673,1.6736,1.6588,1.6564,1.6738,1.6738,1.6738,1.6738,1.6738,1.6738,1.6108,1.6204,1.621,1.6322,1.6345,1.6423,1.6452,1.6491,1.6522,1.6615,1.6669,1.6684,1.6718,1.6783,1.6842,1.6847,1.6872,1.6902,1.6904,1.6765,1.6746,1.6728,1.6706,1.6907,1.6907,1.7047,1.7048,1.7049]}]]